Domény  |  Webhosting  |  VPS


V tuto chvíli si zábavné a zajímavé obrázky prohlíží 287 uživatelů z webu a 11 z mobilu...

 NOVÉ 7:56  0   4/1    Best buddies
 NOVÉ 7:24  1   3/2    nove auto noznice
 NOVÉ 7:24  0   4/5    how russians age
 NOVÉ 7:24  0   2/3    2045 singers
 NOVÉ 17.02.2020  8   2/1    nemnozte se azyjaty
 NOVÉ 17.02.2020  4   12/1    The-worst-kind-of-time-paradox
 NOVÉ 17.02.2020  8   8/2    I-hate-when-they-catch-me-like-this
 NOVÉ 17.02.2020  7   10/0    Bohus
 NOVÉ 17.02.2020  4   14/0    Unexpected-Delivery
 NOVÉ 17.02.2020  8   22/1    To je porad bude lip ale kdy
 NOVÉ 17.02.2020  6   27/2    Roumenistova skolni leta
 NOVÉ 17.02.2020  4   13/1    I-want-it-now
 NOVÉ 17.02.2020  7   1/4    Cumshoes
 NOVÉ 17.02.2020  3   18/5    Just-a-cat
 NOVÉ 17.02.2020  0   12/1    pan hovori k veci
 NOVÉ 17.02.2020  2   4/1    asi nasla dobre madlo
 NOVÉ 17.02.2020  11   10/6    Chlupata familie
 NOVÉ 17.02.2020  13   14/11    Hmmm 2
 NOVÉ 17.02.2020  10   9/6    Checkmate zz
 NOVÉ 17.02.2020  1   11/6    One-day
 NOVÉ 17.02.2020  2   10/7    Gods-plan-for-mankind-OC
 NOVÉ 17.02.2020  0   8/2    maco2
 NOVÉ 17.02.2020  1   6/6    maco1
 NOVÉ 17.02.2020  1   10/1    incredible stepfather
 NOVÉ 17.02.2020  4   9/8    Problemy lidi s malym perem
 NOVÉ 17.02.2020  0   13/4    Wait75
 NOVÉ 17.02.2020  3   12/2    Slovansky pokrok
 NOVÉ 17.02.2020  3   6/7    Wake-up-and-you-hear-loud-noises-at-y...
 NOVÉ 17.02.2020  0   10/9    Echo loc
 NOVÉ 17.02.2020  0   12/13    Dont-cry-for-him-Argentina
 NOVÉ 17.02.2020  5   14/0    nebulte
 NOVÉ 16.02.2020  8   11/12    vsichni svati
 NOVÉ 16.02.2020  12   6/5    potom to tak vyzera
 NOVÉ 16.02.2020  42   33/93    huawei p30
 NOVÉ 16.02.2020  0   23/1    przdna hlava 2020
 NOVÉ 16.02.2020  3   12/3    vzdycky most 2020
 NOVÉ 16.02.2020  13   17/22    twwet 2020
 NOVÉ 16.02.2020  1   2/14    lampicka 2020
 NOVÉ 16.02.2020  4   8/18    coronavirus 2020 2
 NOVÉ 16.02.2020  4   7/22    Doktor 2020
 NOVÉ 16.02.2020  5   10/1    - fujtajbl to sem se lek -
 NOVÉ 16.02.2020  8   11/3    Bitcoin je zabava
 NOVÉ 16.02.2020  1   23/2    napnute kosele VS napnute kosele
 NOVÉ 16.02.2020  3   19/5    Souboj titanu
 NOVÉ 16.02.2020  0   9/2    dnes uz vrazi nejsou to co byvali
 NOVÉ 16.02.2020  4   7/2    gnbn
 NOVÉ 16.02.2020  5   9/1    Frozen Syria
 NOVÉ 16.02.2020  0   15/12    Just hold it
 NOVÉ 16.02.2020  4   10/4    Deepest
 NOVÉ 16.02.2020  22   26/2    Put--in
 NOVÉ 16.02.2020  4   6/9    Lehke sexualni naznaky
 NOVÉ 16.02.2020  9   12/5    Hate-when-it-happens
 NOVÉ 16.02.2020  4   22/1    --Wholesome
 NOVÉ 16.02.2020  4   10/3    Special valentine day
 NOVÉ 16.02.2020  4   33/2    Outside-has-the-big-gay
 NOVÉ 16.02.2020  1   9/8    Mission-Failed
 NOVÉ 16.02.2020  14   16/2    Najdi rozdil mezi muslimy a Kotlebovci
 NOVÉ 16.02.2020  0   17/5    Its-homeopathic-with-essential-oils
 NOVÉ 16.02.2020  2   14/7    I-want-to-die
 NOVÉ 16.02.2020  4   15/0    I-Know-now
 NOVÉ 16.02.2020  5   4/3    fetka in future
 NOVÉ 16.02.2020  40   4/5    Crack the Code
 NOVÉ 15.02.2020  2   4/8    plakaty 11
 NOVÉ 15.02.2020  1   5/8    plakaty 9
 NOVÉ 15.02.2020  1   5/8    plakaty 10
 NOVÉ 15.02.2020  0   3/9    plakaty 8
 NOVÉ 15.02.2020  2   5/8    plakaty 7
 NOVÉ 15.02.2020  0   4/9    plakaty 6
 NOVÉ 15.02.2020  1   5/8    plakaty 5
 NOVÉ 15.02.2020  1   5/7    plakaty 4
 NOVÉ 15.02.2020  0   4/7    plakaty 3
 NOVÉ 15.02.2020  0   6/7    plakaty 2
 NOVÉ 15.02.2020  3   5/7    plakaty 1
 NOVÉ 15.02.2020  1   8/5    insta puss
 NOVÉ 15.02.2020  2   17/2    girl playng with her pussy
 NOVÉ 15.02.2020  4   11/4    rousky jsou nejlepsi darek
 NOVÉ 15.02.2020  22   15/8    - ze zverimexu -
 NOVÉ 15.02.2020  1   8/1    cool pants
 NOVÉ 15.02.2020  2   11/3    FB ADS
 NOVÉ 15.02.2020  3   18/0    - ZEN sutr -
 NOVÉ 15.02.2020  28   3/5    Objektiv Sigma 800 mm 229 km v praxi
 NOVÉ 15.02.2020  15   5/4    Objektiv Sony Reflex 500 mm 6 km
 NOVÉ 15.02.2020  24   5/4    Objektiv MTO 1000a v praxi
 NOVÉ 15.02.2020  5   6/3    ma ji malou
 NOVÉ 15.02.2020  9   12/14    to je uz moc
 NOVÉ 15.02.2020  0   7/16    sajuz nerus ty mna
 NOVÉ 15.02.2020  0   12/2    kudlanka bezbozna
 NOVÉ 15.02.2020  7   16/5    telekineticke schopnosti
 NOVÉ 15.02.2020  5   11/13    IMG-20200215-WA0008
 NOVÉ 15.02.2020  0   25/1    - zimni jezura -
 NOVÉ 15.02.2020  5   12/2    - Hyjeee -
 NOVÉ 15.02.2020  6   6/23    podpis hore sem
 NOVÉ 15.02.2020  5   14/3    koukej mi do voci
 NOVÉ 15.02.2020  2   13/3    a luza maka a plati dane
 NOVÉ 15.02.2020  6   15/41    To zas bude hejtu
 NOVÉ 15.02.2020  2   6/3    - opozdila Valentinka -
 NOVÉ 15.02.2020  11   12/3    - M.HRDY - desetniky -
 NOVÉ 15.02.2020  5   26/3    look mom no hands
 NOVÉ 15.02.2020  3   6/10    prijimam telo pana
 NOVÉ 15.02.2020  3   14/4    dark Harley
 NOVÉ 15.02.2020  2   1/11    catolic pedofiles be like
 NOVÉ 15.02.2020  1   5/5    Jezis Nemanzelsky za mlada
 NOVÉ 15.02.2020  0   20/0    true metal fan
 NOVÉ 15.02.2020  0   6/2    tetovacie studio
 NOVÉ 15.02.2020  7   10/0    kolko pasazierov si menilo spodky
 NOVÉ 15.02.2020  7   18/0    elektrosen4
 NOVÉ 15.02.2020  7   17/0    elektrosen3
 NOVÉ 15.02.2020  3   21/0    elektrosen2
 NOVÉ 15.02.2020  7   27/0    elektrosen1
 NOVÉ 15.02.2020  3   21/6    uklizecka malicka
 NOVÉ 15.02.2020  1   11/5    poletucha
 NOVÉ 15.02.2020  2   12/5    pichni mi vakcinu
 NOVÉ 15.02.2020  7   14/9    bang would not
 NOVÉ 15.02.2020  7   17/7    wet Cleopatra
 NOVÉ 15.02.2020  1   13/5    ma ho tam velkyho
 NOVÉ 15.02.2020  1   23/3    thicc Lara
 NOVÉ 15.02.2020  5   12/4    za Hordu zivot polozis
 NOVÉ 15.02.2020  0   15/7    Paladin or warlock
 NOVÉ 15.02.2020  0   20/5    Frostwolf clan
 NOVÉ 15.02.2020  0   11/8    Sylvanas did nothing wrong 2
 NOVÉ 15.02.2020  3   14/4    vingardium leviosaaah
 NOVÉ 15.02.2020  0   17/4    not so holy priest
 NOVÉ 15.02.2020  4   25/5    Belfka
 NOVÉ 15.02.2020  8   16/5    Warcraft 3 reforged je fuj
 NOVÉ 15.02.2020  5   28/9    Zug zug
 NOVÉ 15.02.2020  8   3/6    gf after 14 years
 NOVÉ 15.02.2020  3   16/4    IMG-20200214-WA0001
 NOVÉ 15.02.2020  5   21/2    Chibicka


Vítejte na Roumingu, serveru plném zábavných a zajímavých obrázků, videí, vtipů a odkazů. Najdete zde materiál pro hodiny a hodiny online zábavy a legrace.
Je zde obrovské množství zábavných a zajímavých obrázků, legračních videí, mnoho vtipů a celá řada odkazů. Kromě toho zde máme diskusní fórum a komu to nestačí, je zde i ostřejší sekce na sesterském webu Roumenovo Maso, která je přístupná až od 18 let.

Pravidla    Kontakt
Tento web používá k poskytování služeb, personalizaci reklam a analýze návštěvnosti soubory cookie. Podmínky pro uchovávání nebo přístup ke cookies je možné nastavit ve vašem prohlížeči. Více...